Regional Weather Roundup
Issued by NWS

Current Version | Previous Version | Text Only | Print | Product List | Glossary On
Versions: 1 2 3 4 5 6 7 8 9 10 11 12 13 14 15 16 17 18 19 20 21 22 23 24 25 26 27 28 29 30 31 32 33 34 35 36 37 38 39 40 41 42 43 44 45 46 47 48 49 50
000
ASCA42 TJSJ 211611
RWRPR
PUERTO RICO/U.S. VIRGIN ISLANDS HOURLY WEATHER ROUNDUP
NATIONAL WEATHER SERVICE SAN JUAN PR
1200 PM AST FRI NOV 21 2014

PRZ001-004-211700-
PUERTO RICO

CITY           SKY/WX    TMP DP  RH WIND       PRES   REMARKS
SAN JUAN LMM   MOSUNNY   86  73  66 NE16      30.02F HX  93
AGUADILLA      PTSUNNY   84  72  65 E18G26    30.04F
CEIBA          MOSUNNY   86  73  66 NE10      30.05F HX  93
$$

PRZ006-007-211700-
U.S. VIRGIN ISLANDS

CITY           SKY/WX    TMP DP  RH WIND       PRES   REMARKS
$$

HOURLY WEATHER ROUNDUP FOR THE NEWS MEDIA

CITY           SKY/WX    TMP DP  RH WIND       PRES   REMARKS
MIAMI          LGT RAIN  71  69  93 NE10      30.19S FOG
ORLANDO        MOSUNNY   69  53  56 NE9       30.29F
NEW YORK       MOSUNNY   35   8  32 NW21G28   30.30R WCI  24
NEWARK         MOSUNNY   33   8  35 W14G23    30.30S WCI  23
CHICAGO        SUNNY     22   2  42 SE8       30.45S WCI  12
HARTFORD       SUNNY     34  10  37 W13G21    30.12R WCI  25
BOSTON         MOSUNNY   34  10  37 NW18G28   30.11R WCI  23
DALLAS         CLOUDY    62  59  90 SE13      30.13R FOG
PHILADELPHIA   MOSUNNY   33   5  30 NW15      30.38R WCI  23



USA.gov is the U.S. government's official web portal to all federal, state and local government web resources and services.